Year,Month,Day,Hour,Minute,Value (Times are PST for temperature in C)
2011,09,23,00,00,15.90
2011,09,23,00,01,15.90
2011,09,23,00,02,15.90
2011,09,23,00,03,15.90
2011,09,23,00,04,15.90
2011,09,23,00,05,15.90
2011,09,23,00,06,15.90
2011,09,23,00,07,15.90
2011,09,23,00,08,15.90
2011,09,23,00,09,15.90
2011,09,23,00,10,15.90
2011,09,23,00,11,15.90
2011,09,23,00,12,15.90
2011,09,23,00,13,15.80
2011,09,23,00,14,15.80
2011,09,23,00,15,15.80
2011,09,23,00,16,15.80
2011,09,23,00,17,15.80
2011,09,23,00,18,15.80
2011,09,23,00,19,15.80
2011,09,23,00,20,15.80
2011,09,23,00,21,15.80
2011,09,23,00,22,15.80
2011,09,23,00,23,15.80
2011,09,23,00,24,15.80
2011,09,23,00,25,15.80
2011,09,23,00,26,15.80
2011,09,23,00,27,15.80
2011,09,23,00,28,15.80
2011,09,23,00,29,15.80
2011,09,23,00,30,15.80
2011,09,23,00,31,15.80
2011,09,23,00,32,15.70
2011,09,23,00,33,15.70
2011,09,23,00,34,15.70
2011,09,23,00,35,15.70
2011,09,23,00,36,15.70
2011,09,23,00,37,15.70
2011,09,23,00,38,15.70
2011,09,23,00,39,15.70
2011,09,23,00,40,15.70
2011,09,23,00,41,15.70
2011,09,23,00,42,15.70
2011,09,23,00,43,15.70
2011,09,23,00,44,15.70
2011,09,23,00,45,15.70
2011,09,23,00,46,15.70
2011,09,23,00,47,15.70
2011,09,23,00,48,15.70
2011,09,23,00,49,15.70
2011,09,23,00,50,15.80
2011,09,23,00,51,15.80
2011,09,23,00,52,15.80
2011,09,23,00,53,15.80
2011,09,23,00,54,15.80
2011,09,23,00,55,15.80
2011,09,23,00,56,15.80
2011,09,23,00,57,15.80
2011,09,23,00,58,15.80
2011,09,23,00,59,15.80
2011,09,23,01,00,15.80
2011,09,23,01,01,15.80
2011,09,23,01,02,15.80
2011,09,23,01,03,15.90
2011,09,23,01,04,15.90
2011,09,23,01,05,15.90
2011,09,23,01,06,15.90
2011,09,23,01,07,15.90
2011,09,23,01,08,15.90
2011,09,23,01,09,15.90
2011,09,23,01,10,15.90
2011,09,23,01,11,15.90
2011,09,23,01,12,15.90
2011,09,23,01,13,15.90
2011,09,23,01,14,15.90
2011,09,23,01,15,15.90
2011,09,23,01,16,15.90
2011,09,23,01,17,15.90
2011,09,23,01,18,15.90
2011,09,23,01,19,15.90
2011,09,23,01,20,15.90
2011,09,23,01,21,15.90
2011,09,23,01,22,15.90
2011,09,23,01,23,15.90
2011,09,23,01,24,15.90
2011,09,23,01,25,15.90
2011,09,23,01,26,15.90
2011,09,23,01,27,15.90
2011,09,23,01,28,15.90
2011,09,23,01,29,15.90
2011,09,23,01,30,15.90
2011,09,23,01,31,15.90
2011,09,23,01,32,15.90
2011,09,23,01,33,15.90
2011,09,23,01,34,15.90
2011,09,23,01,35,15.90
2011,09,23,01,36,15.90
2011,09,23,01,37,15.90
2011,09,23,01,38,15.90
2011,09,23,01,39,15.90
2011,09,23,01,40,15.90
2011,09,23,01,41,15.90
2011,09,23,01,42,15.80
2011,09,23,01,43,15.80
2011,09,23,01,44,15.80
2011,09,23,01,45,15.80
2011,09,23,01,46,15.80
2011,09,23,01,47,15.80
2011,09,23,01,48,15.70
2011,09,23,01,49,15.70
2011,09,23,01,50,15.70
2011,09,23,01,51,15.70
2011,09,23,01,52,15.70
2011,09,23,01,53,15.70
2011,09,23,01,54,15.70
2011,09,23,01,55,15.70
2011,09,23,01,56,15.70
2011,09,23,01,57,15.70
2011,09,23,01,58,15.70
2011,09,23,01,59,15.70
2011,09,23,02,00,15.70
2011,09,23,02,01,15.70
2011,09,23,02,02,15.70
2011,09,23,02,03,15.70
2011,09,23,02,04,15.70
2011,09,23,02,05,15.70
2011,09,23,02,06,15.70
2011,09,23,02,07,15.70
2011,09,23,02,08,15.70
2011,09,23,02,09,15.70
2011,09,23,02,10,15.70
2011,09,23,02,11,15.70
2011,09,23,02,12,15.70
2011,09,23,02,13,15.70
2011,09,23,02,14,15.70
2011,09,23,02,15,15.70
2011,09,23,02,16,15.70
2011,09,23,02,17,15.70
2011,09,23,02,18,15.70
2011,09,23,02,19,15.70
2011,09,23,02,20,15.70
2011,09,23,02,21,15.70
2011,09,23,02,22,15.70
2011,09,23,02,23,15.70
2011,09,23,02,24,15.70
2011,09,23,02,25,15.70
2011,09,23,02,26,15.70
2011,09,23,02,27,15.70
2011,09,23,02,28,15.70
2011,09,23,02,29,15.70
2011,09,23,02,30,15.70
2011,09,23,02,31,15.70
2011,09,23,02,32,15.70
2011,09,23,02,33,15.70
2011,09,23,02,34,15.70
2011,09,23,02,35,15.70
2011,09,23,02,36,15.70
2011,09,23,02,37,15.60
2011,09,23,02,38,15.70
2011,09,23,02,39,15.70
2011,09,23,02,40,15.70
2011,09,23,02,41,15.60
2011,09,23,02,42,15.60
2011,09,23,02,43,15.60
2011,09,23,02,44,15.60
2011,09,23,02,45,15.60
2011,09,23,02,46,15.60
2011,09,23,02,47,15.60
2011,09,23,02,48,15.60
2011,09,23,02,49,15.60
2011,09,23,02,50,15.60
2011,09,23,02,51,15.60
2011,09,23,02,52,15.60
2011,09,23,02,53,15.60
2011,09,23,02,54,15.60
2011,09,23,02,55,15.60
2011,09,23,02,56,15.60
2011,09,23,02,57,15.60
2011,09,23,02,58,15.60
2011,09,23,02,59,15.60
2011,09,23,03,00,15.60
2011,09,23,03,01,15.50
2011,09,23,03,02,15.50
2011,09,23,03,03,15.50
2011,09,23,03,04,15.50
2011,09,23,03,05,15.50
2011,09,23,03,06,15.50
2011,09,23,03,07,15.50
2011,09,23,03,08,15.40
2011,09,23,03,09,15.40
2011,09,23,03,10,15.40
2011,09,23,03,11,15.40
2011,09,23,03,12,15.40
2011,09,23,03,13,15.40
2011,09,23,03,14,15.40
2011,09,23,03,15,15.30
2011,09,23,03,16,15.30
2011,09,23,03,17,15.30
2011,09,23,03,18,15.30
2011,09,23,03,19,15.30
2011,09,23,03,20,15.30
2011,09,23,03,21,15.30
2011,09,23,03,22,15.30
2011,09,23,03,23,15.20
2011,09,23,03,24,15.20
2011,09,23,03,25,15.20
2011,09,23,03,26,15.20
2011,09,23,03,27,15.20
2011,09,23,03,28,15.20
2011,09,23,03,29,15.20
2011,09,23,03,30,15.20
2011,09,23,03,31,15.20
2011,09,23,03,32,15.10
2011,09,23,03,33,15.10
2011,09,23,03,34,15.10
2011,09,23,03,35,15.10
2011,09,23,03,36,15.10
2011,09,23,03,37,15.10
2011,09,23,03,38,15.10
2011,09,23,03,39,15.10
2011,09,23,03,40,15.10
2011,09,23,03,41,15.10
2011,09,23,03,42,15.10
2011,09,23,03,43,15.10
2011,09,23,03,44,15.10
2011,09,23,03,45,15.10
2011,09,23,03,46,15.10
2011,09,23,03,47,15.10
2011,09,23,03,48,15.10
2011,09,23,03,49,15.10
2011,09,23,03,50,15.10
2011,09,23,03,51,15.10
2011,09,23,03,52,15.10
2011,09,23,03,53,15.10
2011,09,23,03,54,15.10
2011,09,23,03,55,15.10
2011,09,23,03,56,15.10
2011,09,23,03,57,15.10
2011,09,23,03,58,15.10
2011,09,23,03,59,15.10
2011,09,23,04,00,15.20
2011,09,23,04,01,15.20
2011,09,23,04,02,15.20
2011,09,23,04,03,15.20
2011,09,23,04,04,15.20
2011,09,23,04,05,15.20
2011,09,23,04,06,15.20
2011,09,23,04,07,15.20
2011,09,23,04,08,15.20
2011,09,23,04,09,15.20
2011,09,23,04,10,15.20
2011,09,23,04,11,15.30
2011,09,23,04,12,15.30
2011,09,23,04,13,15.30
2011,09,23,04,14,15.30
2011,09,23,04,15,15.30
2011,09,23,04,16,15.30
2011,09,23,04,17,15.30
2011,09,23,04,18,15.30
2011,09,23,04,19,15.40
2011,09,23,04,20,15.40
2011,09,23,04,21,15.40
2011,09,23,04,22,15.40
2011,09,23,04,23,15.40
2011,09,23,04,24,15.40
2011,09,23,04,25,15.40
2011,09,23,04,26,15.40
2011,09,23,04,27,15.40
2011,09,23,04,28,15.40
2011,09,23,04,29,15.40
2011,09,23,04,30,15.40
2011,09,23,04,31,15.50
2011,09,23,04,32,15.40
2011,09,23,04,33,15.40
2011,09,23,04,34,15.40
2011,09,23,04,35,15.40
2011,09,23,04,36,15.40
2011,09,23,04,37,15.40
2011,09,23,04,38,15.40
2011,09,23,04,39,15.40
2011,09,23,04,40,15.40
2011,09,23,04,41,15.40
2011,09,23,04,42,15.30
2011,09,23,04,43,15.30
2011,09,23,04,44,15.30
2011,09,23,04,45,15.20
2011,09,23,04,46,15.10
2011,09,23,04,47,15.10
2011,09,23,04,48,15.00
2011,09,23,04,49,15.00
2011,09,23,04,50,15.00
2011,09,23,04,51,15.00
2011,09,23,04,52,15.00
2011,09,23,04,53,15.00
2011,09,23,04,54,15.00
2011,09,23,04,55,15.00
2011,09,23,04,56,15.00
2011,09,23,04,57,15.00
2011,09,23,04,58,14.90
2011,09,23,04,59,14.90
2011,09,23,05,00,14.90
2011,09,23,05,01,14.80
2011,09,23,05,02,14.80
2011,09,23,05,03,14.80
2011,09,23,05,04,14.80
2011,09,23,05,05,14.80
2011,09,23,05,06,14.80
2011,09,23,05,07,14.80
2011,09,23,05,08,14.80
2011,09,23,05,09,14.80
2011,09,23,05,10,14.80
2011,09,23,05,11,14.80
2011,09,23,05,12,14.80
2011,09,23,05,13,14.70
2011,09,23,05,14,14.70
2011,09,23,05,15,14.70
2011,09,23,05,16,14.60
2011,09,23,05,17,14.60
2011,09,23,05,18,14.50
2011,09,23,05,19,14.50
2011,09,23,05,20,14.40
2011,09,23,05,21,14.40
2011,09,23,05,22,14.40
2011,09,23,05,23,14.40
2011,09,23,05,24,14.40
2011,09,23,05,25,14.30
2011,09,23,05,26,14.30
2011,09,23,05,27,14.30
2011,09,23,05,28,14.30
2011,09,23,05,29,14.30
2011,09,23,05,30,14.20
2011,09,23,05,31,14.20
2011,09,23,05,32,14.20
2011,09,23,05,33,14.20
2011,09,23,05,34,14.20
2011,09,23,05,35,14.20
2011,09,23,05,36,14.10
2011,09,23,05,37,14.10
2011,09,23,05,38,14.10
2011,09,23,05,39,14.10
2011,09,23,05,40,14.10
2011,09,23,05,41,14.10
2011,09,23,05,42,14.10
2011,09,23,05,43,14.10
2011,09,23,05,44,14.10
2011,09,23,05,45,14.20
2011,09,23,05,46,14.20
2011,09,23,05,47,14.20
2011,09,23,05,48,14.20
2011,09,23,05,49,14.20
2011,09,23,05,50,14.20
2011,09,23,05,51,14.20
2011,09,23,05,52,14.20
2011,09,23,05,53,14.10
2011,09,23,05,54,14.20
2011,09,23,05,55,14.20
2011,09,23,05,56,14.10
2011,09,23,05,57,14.10
2011,09,23,05,58,14.10
2011,09,23,05,59,14.10
2011,09,23,06,00,14.00
2011,09,23,06,01,14.00
2011,09,23,06,02,14.00
2011,09,23,06,03,13.90
2011,09,23,06,04,13.90
2011,09,23,06,05,13.90
2011,09,23,06,06,13.90
2011,09,23,06,07,13.90
2011,09,23,06,08,13.90
2011,09,23,06,09,13.90
2011,09,23,06,10,13.90
2011,09,23,06,11,13.90
2011,09,23,06,12,13.90
2011,09,23,06,13,13.90
2011,09,23,06,14,13.90
2011,09,23,06,15,13.90
2011,09,23,06,16,13.90
2011,09,23,06,17,13.90
2011,09,23,06,18,13.90
2011,09,23,06,19,13.90
2011,09,23,06,20,13.90
2011,09,23,06,21,13.90
2011,09,23,06,22,13.90
2011,09,23,06,23,13.90
2011,09,23,06,24,13.90
2011,09,23,06,25,13.80
2011,09,23,06,26,13.80
2011,09,23,06,27,13.90
2011,09,23,06,28,13.90
2011,09,23,06,29,13.90
2011,09,23,06,30,13.90
2011,09,23,06,31,13.90
2011,09,23,06,32,13.90
2011,09,23,06,33,13.90
2011,09,23,06,34,13.90
2011,09,23,06,35,13.90
2011,09,23,06,36,13.90
2011,09,23,06,37,13.80
2011,09,23,06,38,13.80
2011,09,23,06,39,13.80
2011,09,23,06,40,13.70
2011,09,23,06,41,13.70
2011,09,23,06,42,13.70
2011,09,23,06,43,13.70
2011,09,23,06,44,13.70
2011,09,23,06,45,13.70
2011,09,23,06,46,13.70
2011,09,23,06,47,13.70
2011,09,23,06,48,13.60
2011,09,23,06,49,13.60
2011,09,23,06,50,13.60
2011,09,23,06,51,13.60
2011,09,23,06,52,13.60
2011,09,23,06,53,13.60
2011,09,23,06,54,13.60
2011,09,23,06,55,13.60
2011,09,23,06,56,13.70
2011,09,23,06,57,13.70
2011,09,23,06,58,13.70
2011,09,23,06,59,13.70
2011,09,23,07,00,13.70
2011,09,23,07,01,13.70
2011,09,23,07,02,13.70
2011,09,23,07,03,13.70
2011,09,23,07,04,13.70
2011,09,23,07,05,13.70
2011,09,23,07,06,13.70
2011,09,23,07,07,13.70
2011,09,23,07,08,13.70
2011,09,23,07,09,13.70
2011,09,23,07,10,13.60
2011,09,23,07,11,13.60
2011,09,23,07,12,13.60
2011,09,23,07,13,13.60
2011,09,23,07,14,13.60
2011,09,23,07,15,13.60
2011,09,23,07,16,13.60
2011,09,23,07,17,13.60
2011,09,23,07,18,13.60
2011,09,23,07,19,13.60
2011,09,23,07,20,13.60
2011,09,23,07,21,13.60
2011,09,23,07,22,13.60
2011,09,23,07,23,13.60
2011,09,23,07,24,13.60
2011,09,23,07,25,13.60
2011,09,23,07,26,13.50
2011,09,23,07,27,13.50
2011,09,23,07,28,13.50
2011,09,23,07,29,13.40
2011,09,23,07,30,13.40
2011,09,23,07,31,13.40
2011,09,23,07,32,13.40
2011,09,23,07,33,13.50
2011,09,23,07,34,13.50
2011,09,23,07,35,13.50
2011,09,23,07,36,13.50
2011,09,23,07,37,13.50
2011,09,23,07,38,13.50
2011,09,23,07,39,13.50
2011,09,23,07,40,13.50
2011,09,23,07,41,13.50
2011,09,23,07,42,13.60
2011,09,23,07,43,13.60
2011,09,23,07,44,13.60
2011,09,23,07,45,13.70
2011,09,23,07,46,13.80
2011,09,23,07,47,13.90
2011,09,23,07,48,14.00
2011,09,23,07,49,14.10
2011,09,23,07,50,14.20
2011,09,23,07,51,14.30
2011,09,23,07,52,14.30
2011,09,23,07,53,14.40
2011,09,23,07,54,14.50
2011,09,23,07,55,14.60
2011,09,23,07,56,14.70
2011,09,23,07,57,14.80
2011,09,23,07,58,14.90
2011,09,23,07,59,15.00
2011,09,23,08,00,15.00
2011,09,23,08,01,15.00
2011,09,23,08,02,15.00
2011,09,23,08,03,15.00
2011,09,23,08,04,15.10
2011,09,23,08,05,15.20
2011,09,23,08,06,15.20
2011,09,23,08,07,15.20
2011,09,23,08,08,15.20
2011,09,23,08,09,15.30
2011,09,23,08,10,15.30
2011,09,23,08,11,15.30
2011,09,23,08,12,15.30
2011,09,23,08,13,15.30
2011,09,23,08,14,15.40
2011,09,23,08,15,15.40
2011,09,23,08,16,15.40
2011,09,23,08,17,15.50
2011,09,23,08,18,15.50
2011,09,23,08,19,15.60
2011,09,23,08,20,15.60
2011,09,23,08,21,15.70
2011,09,23,08,22,15.70
2011,09,23,08,23,15.80
2011,09,23,08,24,15.80
2011,09,23,08,25,15.80
2011,09,23,08,26,15.80
2011,09,23,08,27,15.90
2011,09,23,08,28,15.90
2011,09,23,08,29,15.90
2011,09,23,08,30,15.90
2011,09,23,08,31,15.90
2011,09,23,08,32,16.00
2011,09,23,08,33,16.00
2011,09,23,08,34,16.00
2011,09,23,08,35,16.10
2011,09,23,08,36,16.10
2011,09,23,08,37,16.10
2011,09,23,08,38,16.10
2011,09,23,08,39,16.20
2011,09,23,08,40,16.20
2011,09,23,08,41,16.30
2011,09,23,08,42,16.30
2011,09,23,08,43,16.40
2011,09,23,08,44,16.40
2011,09,23,08,45,16.50
2011,09,23,08,46,16.50
2011,09,23,08,47,16.60
2011,09,23,08,48,16.60
2011,09,23,08,49,16.60
2011,09,23,08,50,16.70
2011,09,23,08,51,16.70
2011,09,23,08,52,16.70
2011,09,23,08,53,16.80
2011,09,23,08,54,16.80
2011,09,23,08,55,16.80
2011,09,23,08,56,16.80
2011,09,23,08,57,16.90
2011,09,23,08,58,16.90
2011,09,23,08,59,16.90
2011,09,23,09,00,16.90
2011,09,23,09,01,16.90
2011,09,23,09,02,16.90
2011,09,23,09,03,16.90
2011,09,23,09,04,16.90
2011,09,23,09,05,17.00
2011,09,23,09,06,17.00
2011,09,23,09,07,17.00
2011,09,23,09,08,17.00
2011,09,23,09,09,17.00
2011,09,23,09,10,17.00
2011,09,23,09,11,17.00
2011,09,23,09,12,17.00
2011,09,23,09,13,17.00
2011,09,23,09,14,17.10
2011,09,23,09,15,17.10
2011,09,23,09,16,17.10
2011,09,23,09,17,17.10
2011,09,23,09,18,17.10
2011,09,23,09,19,17.10
2011,09,23,09,20,17.10
2011,09,23,09,21,17.10
2011,09,23,09,22,17.10
2011,09,23,09,23,17.10
2011,09,23,09,24,17.10
2011,09,23,09,25,17.10
2011,09,23,09,26,17.10
2011,09,23,09,27,17.10
2011,09,23,09,28,17.10
2011,09,23,09,29,17.10
2011,09,23,09,30,17.10
2011,09,23,09,31,17.10
2011,09,23,09,32,17.10
2011,09,23,09,33,17.10
2011,09,23,09,34,17.00
2011,09,23,09,35,17.00
2011,09,23,09,36,17.00
2011,09,23,09,37,17.00
2011,09,23,09,38,17.00
2011,09,23,09,39,17.00
2011,09,23,09,40,17.00
2011,09,23,09,41,16.90
2011,09,23,09,42,16.90
2011,09,23,09,43,16.90
2011,09,23,09,44,16.90
2011,09,23,09,45,16.90
2011,09,23,09,46,16.90
2011,09,23,09,47,16.90
2011,09,23,09,48,16.90
2011,09,23,09,49,16.90
2011,09,23,09,50,16.90
2011,09,23,09,51,16.90
2011,09,23,09,52,16.80
2011,09,23,09,53,16.80
2011,09,23,09,54,16.80
2011,09,23,09,55,16.80
2011,09,23,09,56,16.80
2011,09,23,09,57,16.80
2011,09,23,09,58,16.80
2011,09,23,09,59,16.80
2011,09,23,10,00,16.80
2011,09,23,10,01,16.80
2011,09,23,10,02,16.80
2011,09,23,10,03,16.80
2011,09,23,10,04,16.80
2011,09,23,10,05,16.80
2011,09,23,10,06,16.80
2011,09,23,10,07,16.90
2011,09,23,10,08,16.90
2011,09,23,10,09,16.90
2011,09,23,10,10,16.90
2011,09,23,10,11,16.90
2011,09,23,10,12,16.90
2011,09,23,10,13,17.00
2011,09,23,10,14,17.10
2011,09,23,10,15,17.10
2011,09,23,10,16,17.20
2011,09,23,10,17,17.30
2011,09,23,10,18,17.30
2011,09,23,10,19,17.30
2011,09,23,10,20,17.30
2011,09,23,10,21,17.30
2011,09,23,10,22,17.30
2011,09,23,10,23,17.30
2011,09,23,10,24,17.30
2011,09,23,10,25,17.20
2011,09,23,10,26,17.20
2011,09,23,10,27,17.20
2011,09,23,10,28,17.10
2011,09,23,10,29,17.10
2011,09,23,10,30,17.00
2011,09,23,10,31,17.00
2011,09,23,10,32,16.90
2011,09,23,10,33,16.90
2011,09,23,10,34,16.90
2011,09,23,10,35,16.90
2011,09,23,10,36,16.80
2011,09,23,10,37,16.80
2011,09,23,10,38,16.80
2011,09,23,10,39,16.80
2011,09,23,10,40,16.80
2011,09,23,10,41,16.80
2011,09,23,10,42,16.80
2011,09,23,10,43,16.80
2011,09,23,10,44,16.80
2011,09,23,10,45,16.80
2011,09,23,10,46,16.80
2011,09,23,10,47,16.90
2011,09,23,10,48,17.00
2011,09,23,10,49,17.20
2011,09,23,10,50,17.30
2011,09,23,10,51,17.40
2011,09,23,10,52,17.40
2011,09,23,10,53,17.40
2011,09,23,10,54,17.50
2011,09,23,10,55,17.60
2011,09,23,10,56,17.60
2011,09,23,10,57,17.60
2011,09,23,10,58,17.60
2011,09,23,10,59,17.60
2011,09,23,11,00,17.60
2011,09,23,11,01,17.60
2011,09,23,11,02,17.70
2011,09,23,11,03,17.70
2011,09,23,11,04,17.80
2011,09,23,11,05,17.80
2011,09,23,11,06,17.80
2011,09,23,11,07,17.80
2011,09,23,11,08,17.80
2011,09,23,11,09,17.80
2011,09,23,11,10,17.90
2011,09,23,11,11,17.80
2011,09,23,11,12,17.80
2011,09,23,11,13,17.80
2011,09,23,11,14,17.80
2011,09,23,11,15,17.70
2011,09,23,11,16,17.70
2011,09,23,11,17,17.70
2011,09,23,11,18,17.70
2011,09,23,11,19,17.80
2011,09,23,11,20,17.80
2011,09,23,11,21,17.90
2011,09,23,11,22,17.90
2011,09,23,11,23,18.00
2011,09,23,11,24,18.00
2011,09,23,11,25,18.10
2011,09,23,11,26,18.10
2011,09,23,11,27,18.20
2011,09,23,11,28,18.30
2011,09,23,11,29,18.40
2011,09,23,11,30,18.50
2011,09,23,11,31,18.60
2011,09,23,11,32,18.70
2011,09,23,11,33,18.70
2011,09,23,11,34,18.80
2011,09,23,11,35,18.80
2011,09,23,11,36,18.90
2011,09,23,11,37,18.90
2011,09,23,11,38,19.00
2011,09,23,11,39,19.00
2011,09,23,11,40,19.10
2011,09,23,11,41,19.10
2011,09,23,11,42,19.20
2011,09,23,11,43,19.20
2011,09,23,11,44,19.20
2011,09,23,11,45,19.30
2011,09,23,11,46,19.30
2011,09,23,11,47,19.30
2011,09,23,11,48,19.40
2011,09,23,11,49,19.40
2011,09,23,11,50,19.40
2011,09,23,11,51,19.40
2011,09,23,11,52,19.50
2011,09,23,11,53,19.60
2011,09,23,11,54,19.60
2011,09,23,11,55,19.70
2011,09,23,11,56,19.70
2011,09,23,11,57,19.80
2011,09,23,11,58,19.90
2011,09,23,11,59,19.90
2011,09,23,12,00,20.10
2011,09,23,12,01,20.20
2011,09,23,12,02,20.30
2011,09,23,12,03,20.40
2011,09,23,12,04,20.50
2011,09,23,12,05,20.50
2011,09,23,12,06,20.50
2011,09,23,12,07,20.50
2011,09,23,12,08,20.60
2011,09,23,12,09,20.60
2011,09,23,12,10,20.70
2011,09,23,12,11,20.80
2011,09,23,12,12,20.80
2011,09,23,12,13,20.80
2011,09,23,12,14,20.80
2011,09,23,12,15,20.80
2011,09,23,12,16,20.80
2011,09,23,12,17,20.80
2011,09,23,12,18,20.90
2011,09,23,12,19,20.90
2011,09,23,12,20,20.90
2011,09,23,12,21,21.00
2011,09,23,12,22,21.10
2011,09,23,12,23,21.20
2011,09,23,12,24,21.20
2011,09,23,12,25,21.20
2011,09,23,12,26,21.20
2011,09,23,12,27,21.20
2011,09,23,12,28,21.30
2011,09,23,12,29,21.30
2011,09,23,12,30,21.30
2011,09,23,12,31,21.30
2011,09,23,12,32,21.30
2011,09,23,12,33,21.30
2011,09,23,12,34,21.30
2011,09,23,12,35,21.30
2011,09,23,12,36,21.30
2011,09,23,12,37,21.40
2011,09,23,12,38,21.40
2011,09,23,12,39,21.40
2011,09,23,12,40,21.50
2011,09,23,12,41,21.50
2011,09,23,12,42,21.50
2011,09,23,12,43,21.50
2011,09,23,12,44,21.40
2011,09,23,12,45,21.40
2011,09,23,12,46,21.40
2011,09,23,12,47,21.30
2011,09,23,12,48,21.30
2011,09,23,12,49,21.30
2011,09,23,12,50,21.30
2011,09,23,12,51,21.30
2011,09,23,12,52,21.30
2011,09,23,12,53,21.30
2011,09,23,12,54,21.40
2011,09,23,12,55,21.40
2011,09,23,12,56,21.40
2011,09,23,12,57,21.40
2011,09,23,12,58,21.40
2011,09,23,12,59,21.40
2011,09,23,13,00,21.50
2011,09,23,13,01,21.50
2011,09,23,13,02,21.50
2011,09,23,13,03,21.60
2011,09,23,13,04,21.60
2011,09,23,13,05,21.60
2011,09,23,13,06,21.60
2011,09,23,13,07,21.60
2011,09,23,13,08,21.60
2011,09,23,13,09,21.50
2011,09,23,13,10,21.60
2011,09,23,13,11,21.60
2011,09,23,13,12,21.70
2011,09,23,13,13,21.70
2011,09,23,13,14,21.80
2011,09,23,13,15,21.80
2011,09,23,13,16,21.90
2011,09,23,13,17,21.90
2011,09,23,13,18,21.90
2011,09,23,13,19,21.90
2011,09,23,13,20,21.90
2011,09,23,13,21,21.80
2011,09,23,13,22,21.80
2011,09,23,13,23,21.70
2011,09,23,13,24,21.60
2011,09,23,13,25,21.50
2011,09,23,13,26,21.40
2011,09,23,13,27,21.40
2011,09,23,13,28,21.50
2011,09,23,13,29,21.50
2011,09,23,13,30,21.60
2011,09,23,13,31,21.60
2011,09,23,13,32,21.70
2011,09,23,13,33,21.70
2011,09,23,13,34,21.70
2011,09,23,13,35,21.70
2011,09,23,13,36,21.70
2011,09,23,13,37,21.70
2011,09,23,13,38,21.70
2011,09,23,13,39,21.70
2011,09,23,13,40,21.60
2011,09,23,13,41,21.50
2011,09,23,13,42,21.40
2011,09,23,13,43,21.40
2011,09,23,13,44,21.30
2011,09,23,13,45,21.30
2011,09,23,13,46,21.20
2011,09,23,13,47,21.20
2011,09,23,13,48,21.20
2011,09,23,13,49,21.10
2011,09,23,13,50,21.10
2011,09,23,13,51,21.10
2011,09,23,13,52,21.00
2011,09,23,13,53,21.00
2011,09,23,13,54,21.00
2011,09,23,13,55,20.90
2011,09,23,13,56,20.90
2011,09,23,13,57,20.80
2011,09,23,13,58,20.80
2011,09,23,13,59,20.80
2011,09,23,14,00,20.80
2011,09,23,14,01,20.70
2011,09,23,14,02,20.70
2011,09,23,14,03,20.70
2011,09,23,14,04,20.80
2011,09,23,14,05,20.80
2011,09,23,14,06,21.00
2011,09,23,14,07,21.00
2011,09,23,14,08,21.10
2011,09,23,14,09,21.20
2011,09,23,14,10,21.30
2011,09,23,14,11,21.30
2011,09,23,14,12,21.30
2011,09,23,14,13,21.30
2011,09,23,14,14,21.30
2011,09,23,14,15,21.30
2011,09,23,14,16,21.20
2011,09,23,14,17,21.20
2011,09,23,14,18,21.10
2011,09,23,14,19,21.20
2011,09,23,14,20,21.20
2011,09,23,14,21,21.10
2011,09,23,14,22,21.10
2011,09,23,14,23,21.00
2011,09,23,14,24,21.00
2011,09,23,14,25,20.90
2011,09,23,14,26,20.90
2011,09,23,14,27,20.80
2011,09,23,14,28,20.80
2011,09,23,14,29,20.80
2011,09,23,14,30,20.70
2011,09,23,14,31,20.70
2011,09,23,14,32,20.70
2011,09,23,14,33,20.70
2011,09,23,14,34,20.70
2011,09,23,14,35,20.70
2011,09,23,14,36,20.70
2011,09,23,14,37,20.70
2011,09,23,14,38,20.70
2011,09,23,14,39,20.70
2011,09,23,14,40,20.80
2011,09,23,14,41,20.80
2011,09,23,14,42,20.80
2011,09,23,14,43,20.90
2011,09,23,14,44,20.90
2011,09,23,14,45,20.90
2011,09,23,14,46,20.90
2011,09,23,14,47,21.00
2011,09,23,14,48,21.00
2011,09,23,14,49,21.10
2011,09,23,14,50,21.10
2011,09,23,14,51,21.10
2011,09,23,14,52,21.20
2011,09,23,14,53,21.20
2011,09,23,14,54,21.30
2011,09,23,14,55,21.30
2011,09,23,14,56,21.50
2011,09,23,14,57,21.50
2011,09,23,14,58,21.60
2011,09,23,14,59,21.70
2011,09,23,15,00,21.70
2011,09,23,15,01,21.70
2011,09,23,15,02,21.70
2011,09,23,15,03,21.70
2011,09,23,15,04,21.80
2011,09,23,15,05,21.80
2011,09,23,15,06,21.80
2011,09,23,15,07,21.90
2011,09,23,15,08,22.00
2011,09,23,15,09,22.10
2011,09,23,15,10,22.20
2011,09,23,15,11,22.30
2011,09,23,15,12,22.40
2011,09,23,15,13,22.50
2011,09,23,15,14,22.70
2011,09,23,15,15,22.80
2011,09,23,15,16,22.80
2011,09,23,15,17,22.80
2011,09,23,15,18,22.80
2011,09,23,15,19,22.80
2011,09,23,15,20,22.80
2011,09,23,15,21,22.80
2011,09,23,15,22,22.90
2011,09,23,15,23,22.90
2011,09,23,15,24,23.00
2011,09,23,15,25,23.00
2011,09,23,15,26,23.10
2011,09,23,15,27,23.20
2011,09,23,15,28,23.20
2011,09,23,15,29,23.20
2011,09,23,15,30,23.20
2011,09,23,15,31,23.20
2011,09,23,15,32,23.30
2011,09,23,15,33,23.30
2011,09,23,15,34,23.40
2011,09,23,15,35,23.40
2011,09,23,15,36,23.40
2011,09,23,15,37,23.50
2011,09,23,15,38,23.40
2011,09,23,15,39,23.50
2011,09,23,15,40,23.50
2011,09,23,15,41,23.50
2011,09,23,15,42,23.50
2011,09,23,15,43,23.40
2011,09,23,15,44,23.40
2011,09,23,15,45,23.40
2011,09,23,15,46,23.40
2011,09,23,15,47,23.30
2011,09,23,15,48,23.30
2011,09,23,15,49,23.30
2011,09,23,15,50,23.30
2011,09,23,15,51,23.30
2011,09,23,15,52,23.30
2011,09,23,15,53,23.20
2011,09,23,15,54,23.20
2011,09,23,15,55,23.20
2011,09,23,15,56,23.20
2011,09,23,15,57,23.10
2011,09,23,15,58,23.10
2011,09,23,15,59,23.20
2011,09,23,16,00,23.10
2011,09,23,16,01,23.10
2011,09,23,16,02,23.20
2011,09,23,16,03,23.20
2011,09,23,16,04,23.20
2011,09,23,16,05,23.20
2011,09,23,16,06,23.30
2011,09,23,16,07,23.30
2011,09,23,16,08,23.30
2011,09,23,16,09,23.30
2011,09,23,16,10,23.30
2011,09,23,16,11,23.40
2011,09,23,16,12,23.40
2011,09,23,16,13,23.40
2011,09,23,16,14,23.40
2011,09,23,16,15,23.40
2011,09,23,16,16,23.40
2011,09,23,16,17,23.40
2011,09,23,16,18,23.40
2011,09,23,16,19,23.40
2011,09,23,16,20,23.40
2011,09,23,16,21,23.40
2011,09,23,16,22,23.40
2011,09,23,16,23,23.40
2011,09,23,16,24,23.40
2011,09,23,16,25,23.40
2011,09,23,16,26,23.40
2011,09,23,16,27,23.40
2011,09,23,16,28,23.40
2011,09,23,16,29,23.30
2011,09,23,16,30,23.30
2011,09,23,16,31,23.20
2011,09,23,16,32,23.20
2011,09,23,16,33,23.20
2011,09,23,16,34,23.20
2011,09,23,16,35,23.20
2011,09,23,16,36,23.20
2011,09,23,16,37,23.30
2011,09,23,16,38,23.30
2011,09,23,16,39,23.30
2011,09,23,16,40,23.40
2011,09,23,16,41,23.40
2011,09,23,16,42,23.50
2011,09,23,16,43,23.60
2011,09,23,16,44,23.60
2011,09,23,16,45,23.70
2011,09,23,16,46,23.70
2011,09,23,16,47,23.50
2011,09,23,16,48,23.30
2011,09,23,16,49,23.00
2011,09,23,16,50,22.90
2011,09,23,16,51,22.80
2011,09,23,16,52,22.70
2011,09,23,16,53,22.70
2011,09,23,16,54,22.60
2011,09,23,16,55,22.50
2011,09,23,16,56,22.40
2011,09,23,16,57,22.30
2011,09,23,16,58,22.30
2011,09,23,16,59,22.30
2011,09,23,17,00,22.40
2011,09,23,17,01,22.40
2011,09,23,17,02,22.50
2011,09,23,17,03,22.50
2011,09,23,17,04,22.60
2011,09,23,17,05,22.60
2011,09,23,17,06,22.70
2011,09,23,17,07,22.70
2011,09,23,17,08,22.80
2011,09,23,17,09,22.80
2011,09,23,17,10,22.80
2011,09,23,17,11,22.80
2011,09,23,17,12,22.80
2011,09,23,17,13,22.80
2011,09,23,17,14,22.80
2011,09,23,17,15,22.80
2011,09,23,17,16,22.80
2011,09,23,17,17,22.90
2011,09,23,17,18,22.90
2011,09,23,17,19,22.90